Flag for Canada Weather past 2 weeks in Dryden, Ontario, Canada

Now
50 °F

Overcast.


Feels Like: 46 °F
Forecast: 51 / 60 °F
Wind: 9 mph from North

Location: Dryden Airport

Current Time: Jul 6, 2015 at 9:09:46 AM

Latest Report: Jul 6, 2015 at 8:00 AM


Visibility: 9 mi

Pressure: 29.98 "Hg

Humidity: 82%

Dew point: 45 °F

Location of DrydenLocation

Historic Weather in Dryden — Graph

°F

Dryden temperature yesterday

Maximum temperature yesterday: 73 °F (at 12:00 PM)
Minimum temperature yesterday: 59 °F (at 9:53 PM)
Average temperature yesterday: 66 °F

Past Weeks' High & Low Weather Summary

 TemperatureHumidityPressure
High82 °F (Jun 26, 4:00 PM)100% (Jun 23, 12:00 AM)30.11 "Hg (Jun 23, 12:00 AM)
Low50 °F (Jun 30, 5:00 AM)26% (Jun 26, 3:00 PM)29.67 "Hg (Jun 22, 1:00 PM)
Average65 °F74%29.91 "Hg
* Reported Jun 21 8:00 AM — Jul 6 8:00 AM, Dryden, Weather by CustomWeather, © 2015

Note: Actual official high and low records may vary slightly from our data, if they occured in-between our weather recording intervals... More about our weather records

Advertising

Dryden weather history for previous 24 hours

 ConditionsComfort  
Time TempWeatherWind HumidityBarometerVisibility
8:00 AM
Mon, Jul 6
50 °FOvercast.9 mph82%29.98 "Hg9 mi
7:00 AM52 °FPartly sunny.9 mph88%29.96 "Hg9 mi
6:57 AM52 °FPartly sunny.8 mph88%29.95 "Hg9 mi
6:00 AM52 °FSunny.6 mph88%29.93 "Hg9 mi
5:00 AM54 °FFog.9 mph88%29.91 "Hg3 mi
4:51 AM54 °FFog.8 mph88%29.92 "Hg3 mi
4:00 AM54 °FFog.9 mph100%29.91 "Hg1 mi
3:00 AM55 °FFog.7 mph94%29.88 "Hg1 mi
2:00 AM57 °FFog.8 mph94%29.88 "Hg1 mi
1:00 AM59 °FFog.7 mph94%29.85 "Hg1 mi
12:56 AM59 °FFog.7 mph94%29.85 "Hg1 mi
12:00 AM59 °FFog.3 mph94%29.83 "Hg0 mi
11:00 PM
Sun, Jul 5
59 °FFog.5 mph100%29.82 "Hg1 mi
10:00 PM59 °FFog.5 mph100%29.82 "Hg2 mi
9:53 PM59 °FFog.6 mph100%29.82 "Hg2 mi
9:00 PM61 °FFog.8 mph94%29.80 "Hg4 mi
8:00 PM63 °FFog.5 mph88%29.79 "Hg5 mi
7:00 PM63 °FFog.7 mph88%29.75 "Hg5 mi
6:00 PM70 °FFog.7 mph88%29.73 "Hg6 mi
5:59 PM70 °FFog.8 mph88%29.73 "Hg6 mi
5:00 PM68 °FFog.6 mph94%29.70 "Hg4 mi
4:47 PM68 °FFog.5 mph94%29.71 "Hg3 mi
4:00 PM68 °FThunderstorms. Fog.3 mph94%29.77 "Hg4 mi
3:03 PM72 °FRain. Mostly cloudy.No wind78%29.75 "Hg3 mi
2:00 PM72 °FLight rain. Cloudy.5 mph78%29.78 "Hg9 mi
1:58 PM72 °FLight rain. Cloudy.5 mph78%29.78 "Hg9 mi
1:00 PM72 °FOvercast.7 mph73%29.80 "Hg9 mi
12:00 PM73 °FMore clouds than sun.12 mph69%29.80 "Hg9 mi
11:00 AM72 °FMostly cloudy.6 mph78%29.80 "Hg9 mi
10:00 AM72 °FScattered clouds.8 mph78%29.81 "Hg9 mi
9:00 AM68 °FPartly sunny.No wind83%29.83 "Hg9 mi
Weather by CustomWeather, © 2015

See weather overviewHow to use our weather pages